Regional Weather Roundup
Issued by NWS

Home | Current Version | Previous Version | Text Only | Print | Product List | Glossary Off
Versions: 1 2 3 4 5 6 7 8 9 10 11 12 13 14 15 16 17 18 19 20 21 22 23 24 25 26 27 28 29 30 31 32 33 34 35 36 37 38 39 40 41 42 43 44 45 46 47 48 49 50

163
ASUS45 KBOI 242310
RWRID

IDAHO REGIONAL WEATHER ROUNDUP
NATIONAL WEATHER SERVICE BOISE ID
500 PM MDT WED AUG 24 2016

NOTE: "FAIR" INDICATES FEW OR NO CLOUDS BELOW 12000 FEET
WITH NO SIGNIFICANT WEATHER AND/OR OBSTRUCTIONS TO VISIBILITY

IDZ012-014-250000-
SOUTHWEST IDAHO


CITY           SKY/WX    TMP DP  RH WIND       PRES   REMARKS
BOISE          SUNNY     81  28  14 W14       30.08F
CALDWELL       SUNNY     83  32  16 NW9       30.07F
MOUNTAIN HOME  SUNNY     82  27  13 NW10      30.07F
$$

IDZ016-017-250000-
SOUTHCENTRAL IDAHO


CITY           SKY/WX    TMP DP  RH WIND       PRES   REMARKS
JEROME         SUNNY     78  27  15 SW10      30.13F
TWIN FALLS     SUNNY     77  27  15 NW8G26    30.14F
$$

IDZ019>023-250000-
SOUTHEAST IDAHO


CITY           SKY/WX    TMP DP  RH WIND       PRES   REMARKS
IDAHO FALLS    MOSUNNY   73  32  22 NW18G30   30.14R BLWGDUST
POCATELLO      SUNNY     76  28  17 NW8       30.14F
REXBURG        PTSUNNY   72  32  23 N8        30.13R
$$

IDZ006-010-011-018-031-032-250000-
CENTRAL IDAHO MOUNTAINS


CITY           SKY/WX    TMP DP  RH WIND       PRES   REMARKS
MCCALL         MOSUNNY   75  27  17 NW10      30.18S
HAILEY         SUNNY     73  28  19 SE9       30.17F
STANLEY          N/A     72  17  12 N9        30.20F
SALMON         CLOUDY    75  36  23 SE20      30.14F
CHALLIS        SUNNY     74  28  18 NE10      30.16F
$$

IDZ002-004-006-007-026-250000-
NORTHERN IDAHO


CITY           SKY/WX    TMP DP  RH WIND       PRES   REMARKS
LEWISTON       MOSUNNY   86  37  17 SE3       30.10F
LOWELL           N/A     81  43  26 N6        30.08F
COEUR D`ALENE  SUNNY     81  39  22 NE15G22   30.17F
MULLAN PASS    MOSUNNY   61  38  42 VRB3      30.36S
$$




USA.gov is the U.S. government's official web portal to all federal, state and local government web resources and services.